Track GLOBALSTAR M058 now! 10-day predictions GLOBALSTAR M058 is classified as:
1 25907U 99049A 21025.80996437 -.00000060 00000-0 32363-3 0 9997 2 25907 51.9951 70.3223 0002014 56.5257 303.5770 11.93133428350142